User: anonymous   Login
Location: Aalsum
(53.3404°N, 6.0062°E)
Time: 03:54:57
(UTC+00:00)
Language:

Cosmos 1943 Rocket - Orbit

View from above orbital plane
View from above orbital plane
View from above satellite
View from above satellite

Ground track
Ground track

The orbit data is extracted from the following two-line orbital elements,

1 19120U 88039B   23159.58547946 -.00000066  00000-0 -87708-5 0  9998
2 19120  71.0158  33.3370 0019750  80.8345 279.5013 14.19318899816023
Epoch (UTC): 08 June 2023 14:03:05
Eccentricity: 0.0019750
inclination: 71.0158°
perigee height: 813 km
apogee height: 842 km
right ascension of ascending node: 33.3370°
argument of perigee: 80.8345°
revolutions per day: 14.19318899
mean anomaly at epoch: 279.5013°
orbit number at epoch: 81602

The dashed part of the orbit path shows where the satellite is in the earth's shadow,  

DLR